STARLINK-4164 (53282 NORAD) Tracking and Keplerian Element Data

This shows tracking and keplerian element data for the satellite.

Feedback or suggestion? Click here.




ElementValue
Catalog53282
NameSTARLINK-4164
Epoch Orbit1081
Epoch Day270.25001157
Epoch Year2022
RAAN83.2035
Inclination53.2175
Eccentricity0.0001611
Argument of Perigee39.8561
Mean Anonmoly112.6459
Mean Motion15.63041934
Decay Rate-0.01062335
L11 53282U 22086AS 22270.25001157 -.01062335 00000+0 -12591-1 0 9992
L22 53282 53.2175 83.2035 0001611 39.8561 112.6459 15.63041934 10811

Live tracking and technical data element details for STARLINK-4164 (NORAD 53282). STARLINK-4164 can be tracked NOW for your location showing map with azimuth and elevation plus other details from your city location.

Track the satellite on the map from your city or location and see movement details for azimuth, elevation, latitude, longitude, range, height, and movement on the map or in text.







IsCatalogInMostPopularTable: catalog: 53282, numindb: 2
Update: records affected: 1



GetName: 53282 STARLINK-4164

Hit Count: updated at: Wed, 28 Sep 2022 21:50:45 GMT